Location: Ailly
(50.0793°N, 1.9944°E)
Time: 11:15:17
(UTC+00:00)

SeaSat 1 - Pass Details

Date: 15 January 2026
Orbit: 737 x 740 km, 108.0° (Epoch: 16 February)

Event Time Altitude Azimuth Distance (km) Brightness Sun altitude
Rises 06:03:26 0° 32° (NNE) 3,185 5.9 -15.7°
Reaches altitude 10° 06:05:45 10° 37° (NE) 2,258 5.2 -15.4°
Maximum altitude 06:10:35 56° 116° (ESE) 877 3.2 -14.6°
Drops below altitude 10° 06:15:23 10° 195° (SSW) 2,243 4.9 -13.9°
Sets 06:17:40 0° 199° (SSW) 3,162 5.7 -13.5°
